PBD6836 UWKD-UUEE

Flight info

Callsign PBD6836
Flight time 1h 18m
Altitude 36000
Route APTAR L158 DIMGI
Aircraft B738/M-SDE2E3FGHIRWXY/LB1

Departure

Time 2026-05-07 18:13
Airport Kazan International Airport (UWKD)

Arrival

Time 2026-05-07 19:31
Airport Sheremetyevo International Airport (UUEE)
Time Latitude Longitude Altitude Speed Heading
2026-05-07 17:37 55.60759 49.29822 415 ft 0 kts 34°
2026-05-07 17:54 55.60757 49.29819 415 ft 3 kts 34°
2026-05-07 17:54 55.60735 49.29791 407 ft 4 kts 34°
2026-05-07 17:54 55.60720 49.29770 408 ft 4 kts 62°
2026-05-07 17:54 55.60712 49.29731 408 ft 1 kts 75°
2026-05-07 17:55 55.60704 49.29695 405 ft 4 kts 43°
2026-05-07 17:55 55.60686 49.29673 406 ft 4 kts 31°
2026-05-07 17:55 55.60675 49.29661 407 ft 0 kts 30°
2026-05-07 18:03 55.60698 49.29684 411 ft 13 kts 19°
2026-05-07 18:03 55.60780 49.29564 412 ft 13 kts 304°
2026-05-07 18:03 55.60807 49.29418 415 ft 13 kts 229°
2026-05-07 18:03 55.60729 49.29324 415 ft 15 kts 215°
2026-05-07 18:04 55.60632 49.29206 415 ft 20 kts 214°
2026-05-07 18:04 55.60578 49.28993 415 ft 21 kts 273°
2026-05-07 18:04 55.60588 49.28742 411 ft 20 kts 275°
2026-05-07 18:04 55.60630 49.28517 415 ft 20 kts 304°
2026-05-07 18:05 55.60713 49.28304 412 ft 25 kts 304°
2026-05-07 18:05 55.60816 49.28037 415 ft 27 kts 304°
2026-05-07 18:05 55.60918 49.27777 414 ft 25 kts 304°
2026-05-07 18:05 55.61012 49.27533 407 ft 23 kts 304°
2026-05-07 18:06 55.61101 49.27302 413 ft 22 kts 304°
2026-05-07 18:06 55.61175 49.27111 413 ft 14 kts 304°
2026-05-07 18:06 55.61216 49.26950 411 ft 15 kts 260°
2026-05-07 18:06 55.61176 49.26876 414 ft 0 kts 214°
2026-05-07 18:10 55.61169 49.26867 415 ft 6 kts 214°
2026-05-07 18:11 55.61095 49.26776 414 ft 8 kts 215°
2026-05-07 18:11 55.61056 49.26769 410 ft 10 kts 144°
2026-05-07 18:11 55.61047 49.26790 415 ft 0 kts 122°
2026-05-07 18:12 55.61045 49.26795 415 ft 4 kts 123°
2026-05-07 18:12 55.60852 49.27291 409 ft 95 kts 124°
2026-05-07 18:13 55.60319 49.28667 422 ft 172 kts 123°
2026-05-07 18:13 55.59620 49.30473 1455 ft 160 kts 124°
2026-05-07 18:13 55.59047 49.31961 2921 ft 145 kts 123°
2026-05-07 18:13 55.58450 49.33566 3356 ft 174 kts 124°
2026-05-07 18:14 55.57694 49.35492 3672 ft 205 kts 124°
2026-05-07 18:14 55.56853 49.37627 3984 ft 217 kts 124°
2026-05-07 18:14 55.55956 49.39897 4322 ft 233 kts 124°
2026-05-07 18:14 55.54948 49.42242 4757 ft 248 kts 136°
2026-05-07 18:15 55.53379 49.43579 5268 ft 258 kts 172°
2026-05-07 18:15 55.51620 49.43119 5871 ft 260 kts 208°
2026-05-07 18:15 55.50311 49.40982 6491 ft 261 kts 242°
2026-05-07 18:15 55.49536 49.37971 6840 ft 278 kts 243°
2026-05-07 18:16 55.48320 49.35249 7534 ft 288 kts 222°
2026-05-07 18:16 55.46578 49.33525 7907 ft 289 kts 199°
2026-05-07 18:16 55.44652 49.32413 7951 ft 295 kts 200°
2026-05-07 18:16 55.42745 49.31122 7965 ft 292 kts 207°
2026-05-07 18:17 55.41243 49.28848 7963 ft 284 kts 240°
2026-05-07 18:17 55.40601 49.25637 7983 ft 277 kts 265°
2026-05-07 18:17 55.40640 49.22274 7981 ft 275 kts 278°
2026-05-07 18:17 55.40878 49.18914 7970 ft 277 kts 279°
2026-05-07 18:18 55.41133 49.15550 7970 ft 278 kts 279°
2026-05-07 18:18 55.41382 49.12165 7959 ft 279 kts 279°
2026-05-07 18:18 55.41622 49.08767 7973 ft 280 kts 279°
2026-05-07 18:18 55.41856 49.05354 7965 ft 281 kts 278°
2026-05-07 18:19 55.42084 49.01978 7972 ft 281 kts 278°
2026-05-07 18:19 55.42313 48.98559 7975 ft 282 kts 278°
2026-05-07 18:19 55.42542 48.95127 7976 ft 282 kts 278°
2026-05-07 18:19 55.42768 48.91699 7962 ft 282 kts 278°
2026-05-07 18:20 55.42994 48.88273 7964 ft 281 kts 278°
2026-05-07 18:20 55.43218 48.84860 7963 ft 280 kts 278°
2026-05-07 18:20 55.43442 48.81450 7960 ft 280 kts 278°
2026-05-07 18:20 55.43663 48.78051 7970 ft 279 kts 278°
2026-05-07 18:21 55.43884 48.74652 7969 ft 279 kts 278°
2026-05-07 18:21 55.44103 48.71264 7964 ft 278 kts 278°
2026-05-07 18:21 55.44321 48.67883 7971 ft 278 kts 278°
2026-05-07 18:21 55.44538 48.64504 7974 ft 278 kts 278°
2026-05-07 18:22 55.44756 48.61095 8167 ft 283 kts 278°
2026-05-07 18:22 55.44902 48.58799 8680 ft 285 kts 278°
2026-05-07 18:22 55.45196 48.54177 9990 ft 284 kts 279°
2026-05-07 18:22 55.45598 48.50718 10560 ft 297 kts 287°
2026-05-07 18:23 55.46219 48.47069 10748 ft 323 kts 289°
2026-05-07 18:23 55.46939 48.43162 10936 ft 347 kts 289°
2026-05-07 18:23 55.47706 48.39012 11332 ft 362 kts 289°
2026-05-07 18:23 55.48471 48.34807 12003 ft 367 kts 288°
2026-05-07 18:24 55.49239 48.30504 12805 ft 369 kts 288°
2026-05-07 18:24 55.50003 48.26158 13581 ft 372 kts 288°
2026-05-07 18:24 55.50767 48.21768 14248 ft 376 kts 287°
2026-05-07 18:24 55.51533 48.17334 14914 ft 379 kts 287°
2026-05-07 18:25 55.52301 48.12864 15593 ft 382 kts 287°
2026-05-07 18:25 55.53072 48.08356 16253 ft 385 kts 287°
2026-05-07 18:25 55.53849 48.03798 16882 ft 389 kts 287°
2026-05-07 18:25 55.54631 47.99198 17512 ft 393 kts 287°
2026-05-07 18:26 55.55418 47.94562 18149 ft 396 kts 286°
2026-05-07 18:26 55.56210 47.89881 18688 ft 400 kts 286°
2026-05-07 18:26 55.57010 47.85145 19230 ft 403 kts 286°
2026-05-07 18:26 55.57813 47.80371 19766 ft 405 kts 286°
2026-05-07 18:27 55.58618 47.75576 19950 ft 408 kts 286°
2026-05-07 18:27 55.59421 47.70783 19962 ft 407 kts 286°
2026-05-07 18:27 55.60223 47.65977 19971 ft 407 kts 286°
2026-05-07 18:27 55.60754 47.62791 19973 ft 408 kts 286°
2026-05-07 18:28 55.61823 47.56354 19980 ft 408 kts 286°
2026-05-07 18:28 55.62621 47.51537 19977 ft 408 kts 286°
2026-05-07 18:28 55.63417 47.46719 19970 ft 408 kts 286°
2026-05-07 18:28 55.64211 47.41893 19976 ft 408 kts 286°
2026-05-07 18:29 55.65003 47.37075 19975 ft 408 kts 286°
2026-05-07 18:29 55.65782 47.32320 19969 ft 407 kts 285°
2026-05-07 18:29 55.66579 47.27440 19966 ft 407 kts 285°
2026-05-07 18:29 55.67364 47.22624 19972 ft 407 kts 285°
2026-05-07 18:30 55.68136 47.17873 19961 ft 406 kts 285°
2026-05-07 18:30 55.68914 47.13068 19965 ft 406 kts 285°
2026-05-07 18:30 55.69699 47.08209 20139 ft 413 kts 285°
2026-05-07 18:30 55.70487 47.03319 20740 ft 412 kts 285°
2026-05-07 18:31 55.71274 46.98426 21383 ft 412 kts 285°
2026-05-07 18:31 55.72060 46.93529 21893 ft 415 kts 285°
2026-05-07 18:31 55.72851 46.88577 22351 ft 419 kts 285°
2026-05-07 18:31 55.73647 46.83583 22829 ft 421 kts 285°
2026-05-07 18:32 55.74444 46.78568 23313 ft 424 kts 285°
2026-05-07 18:32 55.75245 46.73517 23741 ft 427 kts 285°
2026-05-07 18:32 55.76050 46.68425 24125 ft 429 kts 285°
2026-05-07 18:32 55.76856 46.63307 24523 ft 431 kts 285°
2026-05-07 18:33 55.77664 46.58171 24891 ft 434 kts 285°
2026-05-07 18:33 55.78476 46.52985 25248 ft 436 kts 285°
2026-05-07 18:33 55.79254 46.47765 25608 ft 438 kts 282°
2026-05-07 18:33 55.79678 46.42377 25957 ft 440 kts 274°
2026-05-07 18:34 55.79853 46.37002 26307 ft 442 kts 273°
2026-05-07 18:34 55.80003 46.31526 26642 ft 444 kts 273°
2026-05-07 18:34 55.80145 46.26029 26968 ft 447 kts 272°
2026-05-07 18:34 55.80282 46.20508 27296 ft 449 kts 272°
2026-05-07 18:35 55.80416 46.14958 27613 ft 451 kts 272°
2026-05-07 18:35 55.80505 46.11190 27819 ft 452 kts 272°
2026-05-07 18:35 55.80637 46.05596 28154 ft 453 kts 272°
2026-05-07 18:35 55.80765 46.00002 28605 ft 451 kts 272°
2026-05-07 18:36 55.80891 45.94452 29116 ft 449 kts 272°
2026-05-07 18:36 55.81014 45.88914 29587 ft 447 kts 272°
2026-05-07 18:36 55.81135 45.83393 30019 ft 447 kts 272°
2026-05-07 18:36 55.81253 45.77887 30360 ft 446 kts 272°
2026-05-07 18:37 55.81368 45.72385 30758 ft 444 kts 272°
2026-05-07 18:37 55.81481 45.66905 31146 ft 442 kts 272°
2026-05-07 18:37 55.81589 45.61520 31495 ft 442 kts 272°
2026-05-07 18:37 55.81696 45.56057 31832 ft 441 kts 272°
2026-05-07 18:38 55.81801 45.50609 32194 ft 440 kts 272°
2026-05-07 18:38 55.81902 45.45175 32556 ft 439 kts 272°
2026-05-07 18:38 55.82002 45.39760 32903 ft 438 kts 272°
2026-05-07 18:38 55.82098 45.34352 33255 ft 437 kts 272°
2026-05-07 18:39 55.82192 45.28961 33590 ft 436 kts 272°
2026-05-07 18:39 55.82284 45.23578 33921 ft 435 kts 272°
2026-05-07 18:39 55.82373 45.18203 34195 ft 434 kts 271°
2026-05-07 18:39 55.82459 45.12823 34441 ft 434 kts 271°
2026-05-07 18:40 55.82543 45.07457 34664 ft 435 kts 271°
2026-05-07 18:40 55.82625 45.02077 34922 ft 434 kts 271°
2026-05-07 18:40 55.82704 44.96777 35173 ft 434 kts 271°
2026-05-07 18:40 55.82781 44.91419 35416 ft 434 kts 271°
2026-05-07 18:41 55.82856 44.86044 35643 ft 434 kts 271°
2026-05-07 18:41 55.82928 44.80687 35873 ft 434 kts 271°
2026-05-07 18:41 55.82999 44.75308 35899 ft 437 kts 271°
2026-05-07 18:42 55.83133 44.64465 35908 ft 437 kts 271°
2026-05-07 18:42 55.83257 44.53713 35906 ft 432 kts 271°
2026-05-07 18:43 55.83371 44.43049 35910 ft 430 kts 271°
2026-05-07 18:43 55.83475 44.32419 35910 ft 429 kts 271°
2026-05-07 18:44 55.83570 44.21809 35908 ft 429 kts 271°
2026-05-07 18:44 55.83656 44.11182 35908 ft 430 kts 271°
2026-05-07 18:45 55.83733 44.00546 35911 ft 431 kts 270°
2026-05-07 18:45 55.83800 43.89919 35902 ft 432 kts 270°
2026-05-07 18:46 55.83859 43.79213 35901 ft 433 kts 270°
2026-05-07 18:46 55.83909 43.68467 35895 ft 434 kts 270°
2026-05-07 18:47 55.83949 43.57784 35897 ft 435 kts 270°
2026-05-07 18:47 55.83980 43.47024 35890 ft 435 kts 270°
2026-05-07 18:48 55.84001 43.36260 35893 ft 435 kts 270°
2026-05-07 18:48 55.84013 43.25501 35890 ft 435 kts 270°
2026-05-07 18:49 55.84016 43.14750 35890 ft 434 kts 270°
2026-05-07 18:49 55.84010 43.04019 35890 ft 433 kts 270°
2026-05-07 18:50 55.83994 42.93296 35892 ft 433 kts 270°
2026-05-07 18:50 55.83969 42.82581 35889 ft 432 kts 270°
2026-05-07 18:51 55.83934 42.71880 35887 ft 432 kts 269°
2026-05-07 18:51 55.83891 42.61276 35892 ft 431 kts 269°
2026-05-07 18:52 55.83838 42.50606 35890 ft 431 kts 269°
2026-05-07 18:52 55.83776 42.39957 35885 ft 430 kts 269°
2026-05-07 18:53 55.83705 42.29314 35887 ft 430 kts 269°
2026-05-07 18:53 55.83625 42.18686 35886 ft 430 kts 269°
2026-05-07 18:54 55.83536 42.08028 35890 ft 429 kts 269°
2026-05-07 18:54 55.83438 41.97469 35890 ft 429 kts 269°
2026-05-07 18:55 55.83330 41.86829 35889 ft 429 kts 269°
2026-05-07 18:55 55.83214 41.76185 35890 ft 429 kts 269°
2026-05-07 18:56 55.83089 41.65629 35890 ft 429 kts 269°
2026-05-07 18:56 55.82954 41.55004 35896 ft 429 kts 269°
2026-05-07 18:57 55.82809 41.44347 35892 ft 429 kts 269°
2026-05-07 18:57 55.82657 41.33804 35893 ft 429 kts 269°
2026-05-07 18:58 55.82495 41.23177 35892 ft 429 kts 269°
2026-05-07 18:58 55.82323 41.12574 35894 ft 429 kts 268°
2026-05-07 18:59 55.82143 41.01952 35895 ft 429 kts 268°
2026-05-07 18:59 55.81953 40.91336 35901 ft 429 kts 268°
2026-05-07 19:00 55.81754 40.80730 35896 ft 429 kts 268°
2026-05-07 19:00 55.81545 40.70100 34982 ft 437 kts 268°
2026-05-07 19:00 55.81436 40.64720 34381 ft 434 kts 268°
2026-05-07 19:01 55.81325 40.59404 33636 ft 435 kts 268°
2026-05-07 19:01 55.81212 40.54024 32903 ft 435 kts 268°
2026-05-07 19:01 55.81096 40.48659 32207 ft 434 kts 268°
2026-05-07 19:01 55.80979 40.43308 31501 ft 433 kts 268°
2026-05-07 19:02 55.80859 40.37950 30772 ft 433 kts 268°
2026-05-07 19:02 55.80737 40.32604 30048 ft 433 kts 268°
2026-05-07 19:02 55.80613 40.27267 29442 ft 429 kts 268°
2026-05-07 19:02 55.80488 40.21992 28871 ft 423 kts 267°
2026-05-07 19:03 55.80363 40.16821 28349 ft 416 kts 267°
2026-05-07 19:03 55.80238 40.11697 27827 ft 415 kts 267°
2026-05-07 19:03 55.80109 40.06539 27268 ft 420 kts 267°
2026-05-07 19:03 55.79978 40.01366 26681 ft 416 kts 267°
2026-05-07 19:04 55.79848 39.96274 26378 ft 405 kts 267°
2026-05-07 19:04 55.79720 39.91359 26203 ft 392 kts 267°
2026-05-07 19:04 55.79593 39.86591 26037 ft 380 kts 267°
2026-05-07 19:04 55.79596 39.81954 25858 ft 370 kts 276°
2026-05-07 19:05 55.80232 39.77641 25579 ft 365 kts 290°
2026-05-07 19:05 55.81230 39.73522 25316 ft 359 kts 292°
2026-05-07 19:05 55.82264 39.69500 25031 ft 359 kts 292°
2026-05-07 19:05 55.83319 39.65443 24748 ft 363 kts 292°
2026-05-07 19:06 55.84382 39.61332 24449 ft 367 kts 292°
2026-05-07 19:06 55.86472 39.53136 23839 ft 360 kts 292°
2026-05-07 19:06 55.87495 39.49078 23543 ft 358 kts 292°
2026-05-07 19:07 55.88505 39.45052 23200 ft 355 kts 292°
2026-05-07 19:07 55.89507 39.41039 22883 ft 353 kts 291°
2026-05-07 19:07 55.90498 39.37058 22575 ft 350 kts 291°
2026-05-07 19:07 55.91482 39.33096 22285 ft 348 kts 291°
2026-05-07 19:08 55.92443 39.29216 22002 ft 346 kts 291°
2026-05-07 19:08 55.93413 39.25296 21717 ft 345 kts 291°
2026-05-07 19:08 55.94378 39.21384 21434 ft 344 kts 291°
2026-05-07 19:08 55.95340 39.17481 21152 ft 343 kts 291°
2026-05-07 19:09 55.96297 39.13589 20873 ft 343 kts 291°
2026-05-07 19:09 55.97254 39.09691 20590 ft 342 kts 291°
2026-05-07 19:09 55.98209 39.05796 20309 ft 342 kts 291°
2026-05-07 19:09 55.99162 39.01901 20023 ft 342 kts 291°
2026-05-07 19:10 56.00112 38.98010 19748 ft 341 kts 290°
2026-05-07 19:10 56.01058 38.94133 19466 ft 340 kts 290°
2026-05-07 19:10 56.02000 38.90261 19191 ft 339 kts 290°
2026-05-07 19:10 56.02936 38.86411 18904 ft 337 kts 290°
2026-05-07 19:11 56.03865 38.82581 18633 ft 335 kts 290°
2026-05-07 19:11 56.04789 38.78766 18358 ft 333 kts 290°
2026-05-07 19:11 56.05707 38.74968 18077 ft 331 kts 290°
2026-05-07 19:11 56.06617 38.71194 17768 ft 329 kts 290°
2026-05-07 19:12 56.07520 38.67446 17482 ft 327 kts 290°
2026-05-07 19:12 56.08415 38.63723 17200 ft 324 kts 290°
2026-05-07 19:12 56.09303 38.60024 16930 ft 322 kts 289°
2026-05-07 19:12 56.10184 38.56347 16667 ft 320 kts 289°
2026-05-07 19:13 56.11060 38.52687 16407 ft 318 kts 289°
2026-05-07 19:13 56.11929 38.49047 16148 ft 317 kts 289°
2026-05-07 19:13 56.12793 38.45420 15891 ft 316 kts 289°
2026-05-07 19:13 56.13654 38.41801 15632 ft 315 kts 289°
2026-05-07 19:14 56.14500 38.38239 15377 ft 314 kts 289°
2026-05-07 19:14 56.15365 38.34592 15117 ft 314 kts 289°
2026-05-07 19:14 56.16206 38.31042 14861 ft 313 kts 289°
2026-05-07 19:14 56.17055 38.27449 14598 ft 312 kts 289°
2026-05-07 19:15 56.17900 38.23868 14347 ft 312 kts 289°
2026-05-07 19:15 56.18746 38.20276 14093 ft 311 kts 289°
2026-05-07 19:15 56.19586 38.16708 13839 ft 310 kts 289°
2026-05-07 19:15 56.20427 38.13123 13439 ft 313 kts 289°
2026-05-07 19:16 56.21270 38.09528 13140 ft 311 kts 289°
2026-05-07 19:16 56.22102 38.05977 12854 ft 306 kts 288°
2026-05-07 19:16 56.22913 38.02513 12584 ft 295 kts 288°
2026-05-07 19:16 56.23698 37.99157 12294 ft 288 kts 288°
2026-05-07 19:17 56.24476 37.95810 12045 ft 294 kts 288°
2026-05-07 19:17 56.25257 37.92448 12010 ft 288 kts 288°
2026-05-07 19:17 56.26016 37.89187 11936 ft 277 kts 288°
2026-05-07 19:17 56.26745 37.86048 11865 ft 267 kts 287°
2026-05-07 19:18 56.27449 37.83012 11731 ft 259 kts 287°
2026-05-07 19:18 56.28137 37.80029 11460 ft 257 kts 287°
2026-05-07 19:18 56.28816 37.77086 11043 ft 255 kts 287°
2026-05-07 19:18 56.29497 37.74127 10541 ft 256 kts 286°
2026-05-07 19:19 56.30178 37.71173 10064 ft 255 kts 288°
2026-05-07 19:19 56.31196 37.68485 9563 ft 267 kts 308°
2026-05-07 19:19 56.32694 37.66497 9053 ft 278 kts 325°
2026-05-07 19:19 56.34558 37.65387 8544 ft 289 kts 344°
2026-05-07 19:20 56.36596 37.65495 8040 ft 301 kts
2026-05-07 19:20 56.38525 37.67049 7550 ft 310 kts 33°
2026-05-07 19:20 56.39964 37.69944 7169 ft 311 kts 60°
2026-05-07 19:20 56.40606 37.73574 6917 ft 299 kts 88°
2026-05-07 19:21 56.40383 37.77187 6671 ft 284 kts 115°
2026-05-07 19:21 56.39434 37.80189 6425 ft 271 kts 139°
2026-05-07 19:21 56.37991 37.82262 6210 ft 262 kts 160°
2026-05-07 19:21 56.36321 37.83428 5957 ft 254 kts 175°
2026-05-07 19:22 56.35177 37.83640 5790 ft 246 kts 189°
2026-05-07 19:22 56.33491 37.83352 5539 ft 242 kts 193°
2026-05-07 19:22 56.31829 37.82975 5300 ft 240 kts 193°
2026-05-07 19:22 56.30172 37.82589 5051 ft 240 kts 193°
2026-05-07 19:23 56.28519 37.82204 4786 ft 239 kts 192°
2026-05-07 19:23 56.26876 37.81825 4548 ft 238 kts 192°
2026-05-07 19:23 56.25236 37.81447 4302 ft 237 kts 191°
2026-05-07 19:23 56.23595 37.81071 4041 ft 238 kts 191°
2026-05-07 19:24 56.21957 37.80696 3786 ft 237 kts 190°
2026-05-07 19:24 56.20322 37.80325 3527 ft 236 kts 190°
2026-05-07 19:24 56.18692 37.79956 3320 ft 236 kts 189°
2026-05-07 19:24 56.17063 37.79586 3098 ft 234 kts 189°
2026-05-07 19:25 56.15477 37.79229 3026 ft 225 kts 189°
2026-05-07 19:25 56.13969 37.78891 3022 ft 219 kts 189°
2026-05-07 19:25 56.12460 37.78547 3012 ft 217 kts 189°
2026-05-07 19:25 56.10971 37.78211 3007 ft 215 kts 189°
2026-05-07 19:26 56.09489 37.77880 3016 ft 214 kts 190°
2026-05-07 19:26 56.08062 37.77236 3008 ft 210 kts 200°
2026-05-07 19:26 56.06680 37.76415 3006 ft 209 kts 200°
2026-05-07 19:26 56.05293 37.75590 3007 ft 211 kts 200°
2026-05-07 19:27 56.03885 37.74768 3012 ft 213 kts 200°
2026-05-07 19:27 56.02530 37.73751 2989 ft 211 kts 219°
2026-05-07 19:27 56.01643 37.71718 3008 ft 209 kts 247°
2026-05-07 19:27 56.01185 37.69208 2842 ft 215 kts 255°
2026-05-07 19:28 56.00876 37.66604 2671 ft 214 kts 257°
2026-05-07 19:28 56.00547 37.64020 2565 ft 212 kts 255°
2026-05-07 19:28 56.00178 37.61539 2495 ft 198 kts 253°
2026-05-07 19:28 55.99828 37.59258 2333 ft 184 kts 254°
2026-05-07 19:29 55.99500 37.57100 2117 ft 175 kts 253°
2026-05-07 19:29 55.99194 37.55078 1901 ft 163 kts 253°
2026-05-07 19:29 55.98912 37.53219 1713 ft 150 kts 253°
2026-05-07 19:29 55.98648 37.51477 1518 ft 147 kts 254°
2026-05-07 19:30 55.98381 37.49709 1322 ft 148 kts 255°
2026-05-07 19:30 55.98113 37.47932 1123 ft 148 kts 255°
2026-05-07 19:30 55.97838 37.46154 891 ft 148 kts 255°
2026-05-07 19:30 55.97568 37.44408 679 ft 144 kts 257°
2026-05-07 19:31 55.97343 37.42816 642 ft 107 kts 255°
2026-05-07 19:31 55.97208 37.41908 642 ft 50 kts 255°
2026-05-07 19:31 55.97128 37.41357 640 ft 41 kts 256°
2026-05-07 19:31 55.96986 37.40975 639 ft 33 kts 227°
2026-05-07 19:32 55.96902 37.40826 640 ft 0 kts 225°
2026-05-07 19:33 55.96902 37.40825 640 ft 0 kts 225°
2026-05-07 19:33 55.96868 37.40765 639 ft 15 kts 225°
2026-05-07 19:33 55.96791 37.40560 641 ft 22 kts 255°
2026-05-07 19:34 55.96753 37.40311 643 ft 18 kts 255°
2026-05-07 19:34 55.96703 37.40133 638 ft 16 kts 192°
2026-05-07 19:34 55.96592 37.40175 640 ft 17 kts 165°
2026-05-07 19:34 55.96487 37.40191 641 ft 10 kts 226°
2026-05-07 19:35 55.96461 37.40097 641 ft 7 kts 255°
2026-05-07 19:35 55.96459 37.40084 640 ft 0 kts 255°